Orbital Elements at Epoch 2459200.5 (2020-Dec-17.0) TDB
Reference: JPL 14 (heliocentric ecliptic J2000)
Element | Value | Uncertainty (1-sigma) | Units |
e | .08434573080388466 | 4.178e-08 | |
a | 2.389333067731143 | 1.1101e-08 | au |
q | 2.187803023999472 | 1.0417e-07 | au |
i | 1.021647268547623 | 4.0359e-06 | deg |
node | 151.0017380454908 | 0.00023 | deg |
peri | 229.4929142859561 | 0.0002312 | deg |
M | 287.3506643581399 | 2.5131e-05 | deg |
tp | 2459472.734156293916 (2021-Sep-15.23415629) | 9.5019e-05 | TDB |
period | 1349.004714219853 3.69 | 9.4017e-06 2.574e-08 | d yr |
n | .2668634113767295 | 1.8599e-09 | deg/d |
Q | 2.590863111462814 | 1.2038e-08 | au |
|
| | Orbit Determination Parameters
Additional Information
|